Location: Oberkirch
(48.5323°N, 8.0787°E)
Time: 17:25:46
(UTC+00:00)

SR - Pass Details

Date: 21 February 2026
Orbit: 572 x 848 km, 66.7° (Epoch: 8 March)

Event Time Altitude Azimuth Distance (km) Brightness Sun altitude
Exits shadow 03:36:39 42° 38° (NE) 877 ? -28.3°
Drops below altitude 10° 03:39:40 10° 36° (NE) 2,008 ? -27.8°
Sets 03:42:02 0° 36° (NE) 2,960 ? -27.5°
